Wind_Speed
15 15 17 17 17 18 18 17 16 14 12 12 13 10 7 6 5 7 7 4 7 6 1 5 2 2 2 5 4 10 5 5 7 4 3 3 5 1 5 7 3 3 5 5 4 5 5 2 4 3 6 5 4 1
15 15 17 18 19 19 17 16 15 13 11 10 11 9 6 5 4 4 8 4 5 6 6 3 3 3 6 9 7 5 5 2 5 4 0 1 3 3 6 5 5 5 4 4 4 6 6 6 9 5 4 5 4 3
15 16 17 19 19 18 16 15 13 11 10 9 8 8 7 6 5 5 8 4 7 6 9 9 12 11 9 7 7 7 5 3 3 5 4 1 0 3 4 5 2 7 1 5 1 8 3 5 5 4 4 5 4 4
14 15 18 18 17 17 15 13 11 10 10 8 8 8 7 7 6 5 8 4 9 7 7 11 8 9 6 4 4 6 3 2 1 5 5 4 4 2 3 3 4 3 8 7 6 4 3 5 5 5 5 1 2 3
14 16 17 17 16 15 13 10 9 8 9 8 9 7 7 6 6 6 9 11 9 9 4 6 13 12 11 7 6 5 6 5 5 5 5 5 2 1 5 4 6 7 6 6 3 2 7 2 10 5 5 4 2 3
12 15 15 15 14 13 11 8 7 7 8 8 9 7 6 6 5 4 5 12 10 8 5 4 6 8 9 8 6 4 6 5 4 4 3 1 4 4 4 4 4 8 7 6 3 3 6 1 4 6 6 4 5 2
10 13 13 14 13 11 8 7 6 6 7 8 7 7 6 6 6 6 4 4 7 5 4 4 5 9 12 11 7 5 4 3 5 2 3 3 4 3 6 7 3 3 3 4 4 3 4 5 5 5 5 5 3 2
9 10 13 12 11 7 4 4 6 7 8 8 6 5 5 5 6 8 6 5 5 10 4 4 3 7 16 7 7 5 6 5 5 4 1 5 6 4 4 4 5 2 3 5 7 8 6 7 5 6 6 6 5 3
8 8 10 11 8 4 2 3 4 6 7 7 7 4 2 4 6 6 5 6 7 5 4 5 7 5 11 11 7 5 4 6 3 4 4 0 5 4 7 5 3 6 6 7 8 8 8 8 8 8 7 5 4 2
7 6 6 9 7 4 1 2 3 5 6 8 4 5 4 6 5 10 5 6 6 5 4 5 9 6 9 8 6 6 5 6 3 2 3 3 6 9 10 7 5 4 7 6 8 9 8 9 9 8 4 1 2 0
8 7 5 5 6 5 1 2 3 3 8 3 5 1 5 12 8 5 5 5 6 5 6 8 7 6 4 9 9 5 3 2 3 4 4 3 4 5 3 4 7 5 6 7 5 4 8 7 7 7 5 3 3 2
8 8 6 5 5 4 2 1 4 7 4 3 1 1 6 5 4 6 5 5 5 7 7 10 7 6 5 4 3 4 3 3 5 7 4 2 4 4 5 4 5 6 8 7 7 7 9 9 9 6 6 5 3 1
7 7 7 5 3 2 0 2 4 6 3 3 4 5 3 3 2 6 9 6 6 5 6 9 13 6 3 6 2 4 5 6 4 3 2 5 7 6 5 4 5 6 8 8 8 9 9 8 6 6 5 2 2 3
7 5 6 7 5 5 2 0 4 5 3 1 1 1 3 4 6 6 7 6 3 5 8 9 9 7 5 4 3 5 4 4 4 6 5 3 11 8 6 6 7 9 10 10 10 11 11 9 6 6 5 2 0 1
6 5 6 9 7 7 7 5 3 2 3 1 1 3 7 8 7 5 3 3 5 8 10 10 5 3 6 3 4 3 4 5 4 6 5 10 10 10 9 9 10 9 9 8 9 10 10 10 9 6 4 2 1 1
5 4 5 5 7 5 6 6 5 2 0 2 6 7 6 7 7 7 7 6 4 3 2 2 2 2 5 4 6 8 4 5 5 5 9 9 10 10 10 9 9 10 11 11 11 11 11 9 6 5 4 2 3 2
3 2 4 9 8 5 11 6 8 5 5 5 6 8 9 2 2 6 5 5 10 8 5 4 7 6 5 4 5 5 8 5 4 5 6 8 11 11 11 11 11 12 12 12 11 9 8 6 5 5 5 3 5 3
2 3 9 9 9 6 3 4 4 4 7 7 7 6 5 5 5 6 3 6 7 8 7 2 4 5 4 4 5 6 5 4 3 3 7 9 10 14 14 12 14 14 13 12 11 10 9 7 6 8 6 6 6 7
3 6 10 9 8 3 2 3 4 3 5 7 5 5 4 4 4 4 6 5 5 1 4 3 4 6 6 3 3 4 6 4 5 5 8 12 16 16 16 16 16 15 14 13 13 12 11 8 9 8 9 7 8 1
4 7 8 8 5 4 3 3 4 4 5 4 6 7 6 6 7 8 7 6 7 6 3 4 7 6 1 1 2 3 2 2 4 5 7 9 16 17 18 18 16 16 15 14 13 6 9 10 10 9 5 1 5 4
5 5 6 5 2 5 3 2 4 4 4 4 5 7 6 7 9 8 8 8 8 10 9 9 8 8 8 5 1 1 0 3 4 5 7 8 15 18 19 17 16 17 15 14 13 11 6 11 11 10 8 8 11 6
3 8 4 6 3 3 5 9 4 4 3 5 4 4 4 6 6 7 7 7 10 10 9 10 10 10 8 7 6 8 7 7 8 6 13 20 11 11 14 17 17 14 14 13 12 12 12 12 12 10 8 8 4 7
7 5 3 5 3 3 5 4 4 4 4 2 4 7 6 6 5 6 4 8 10 11 12 10 12 13 11 11 5 8 9 10 7 11 14 17 18 19 18 17 17 14 12 12 11 10 13 10 9 8 9 4 8 5
2 2 2 3 7 4 3 4 4 3 4 6 4 5 4 3 3 4 7 9 9 9 10 10 7 9 9 9 8 8 12 14 12 11 16 17 12 16 17 17 16 15 13 13 12 12 14 13 12 12 10 9 7 9
2 4 4 4 4 4 4 4 8 5 5 6 7 3 3 3 3 4 4 3 5 3 4 6 8 9 9 7 9 14 15 15 11 8 16 18 16 16 15 15 15 14 14 13 14 14 14 14 15 14 14 10 8 4
2 4 5 5 4 5 4 2 2 3 4 2 2 1 1 3 3 2 1 4 1 4 2 4 7 8 4 2 3 6 16 16 14 11 16 17 18 17 13 10 9 14 13 14 14 15 15 14 14 14 11 6 1 7
3 5 6 6 3 3 4 3 5 4 4 4 3 1 2 3 2 2 3 4 5 6 3 0 2 3 3 5 7 6 11 15 14 14 19 16 19 23 17 16 15 16 16 15 15 15 15 15 14 14 11 10 12 12
5 3 5 3 6 4 4 2 3 2 3 1 3 2 1 3 1 2 2 7 6 3 1 2 1 2 13 9 11 13 13 13 12 16 17 16 15 15 14 16 16 21 19 17 15 15 15 15 14 14 13 11 10 11
6 5 4 6 5 3 3 2 4 3 3 3 3 4 5 4 1 4 7 6 2 7 4 5 4 2 6 9 8 10 12 12 12 9 9 8 7 13 15 16 16 21 20 20 18 14 15 14 15 15 13 12 10 10
7 4 5 5 4 4 5 6 8 9 7 11 4 3 1 2 5 6 8 8 6 3 4 7 7 2 1 7 10 10 12 12 14 15 10 9 11 15 14 14 16 18 19 19 21 20 17 13 12 11 11 11 12 12
1 3 8 6 6 8 9 6 5 4 5 2 3 2 0 3 4 7 11 12 9 7 6 7 4 4 11 8 11 10 9 8 7 8 10 6 14 17 17 17 17 18 19 19 18 19 21 23 22 19 17 17 17 14
5 7 5 8 8 5 4 6 6 5 2 2 2 3 4 2 2 4 13 13 9 9 10 9 5 6 7 12 18 15 12 8 5 5 6 6 9 5 5 11 15 15 15 16 18 18 19 21 21 22 22 20 17 15
8 7 6 5 5 5 5 4 1 3 3 2 3 5 7 4 4 3 7 12 11 8 7 6 5 6 8 11 14 15 8 5 4 2 2 6 16 13 12 13 14 14 14 14 13 13 13 15 17 20 23 17 13 13
Wind_Direction
295 301 301 302 304 302 300 302 298 286 274 284 292 272 272 286 303 316 315 256 291 272 240 241 284 187 187 267 261 106 210 197 203 269 249 107 283 248 279 284 257 212 245 256 192 283 199 39 179 320 72 95 49 78
302 303 306 307 306 302 298 300 296 285 267 272 287 253 263 254 262 289 273 219 272 264 15 292 259 340 322 343 319 148 338 356 356 236 238 63 206 214 234 234 166 270 264 312 323 36 76 59 69 88 70 79 49 33
306 308 310 307 307 306 302 298 291 279 260 264 261 236 252 249 234 237 285 312 251 263 235 217 212 205 228 245 271 282 200 41 189 330 338 254 219 275 217 254 232 199 130 246 29 161 138 118 115 124 63 63 24 22
307 312 314 312 309 306 300 293 287 272 252 265 230 225 237 244 228 230 238 258 263 293 258 173 125 173 205 195 242 300 53 100 25 227 253 246 230 170 271 24 243 7 148 227 235 125 150 183 185 162 125 112 43 32
312 319 319 314 310 305 297 288 285 267 259 248 219 217 226 235 228 243 252 249 247 292 277 192 172 168 204 176 203 220 222 208 209 206 234 237 0 248 255 296 253 201 230 216 242 144 195 326 175 187 175 183 126 104
310 320 325 322 317 305 296 279 265 256 263 227 220 212 216 219 216 234 222 216 219 239 281 219 101 160 203 180 200 198 192 221 255 254 255 44 64 278 257 236 212 264 208 255 241 212 186 162 155 181 205 178 157 168
309 331 331 328 321 306 285 269 247 261 231 231 221 207 217 211 217 255 358 30 178 213 251 262 164 166 194 186 189 185 203 234 279 206 259 253 163 215 278 266 292 221 210 189 244 204 232 190 200 200 215 156 161 236
289 326 341 335 332 313 283 247 234 233 220 216 211 203 208 223 252 251 229 192 177 225 256 240 133 149 194 192 190 201 202 203 192 268 119 246 144 225 261 258 229 226 199 212 212 218 249 182 182 155 158 176 187 208
289 304 338 346 345 325 289 258 232 217 207 204 184 175 203 222 219 144 155 187 208 283 261 219 229 168 167 226 195 165 254 218 119 239 223 214 245 211 246 259 225 178 206 196 198 202 203 161 170 164 184 175 230 209
272 301 326 355 354 345 242 208 216 198 182 169 171 203 198 148 143 128 161 189 186 217 230 260 243 142 176 195 177 192 184 245 207 163 93 245 257 252 237 247 266 205 198 178 189 188 198 192 170 178 183 143 286 78
262 266 300 325 344 355 289 211 199 186 159 201 213 232 90 145 175 217 185 216 184 203 204 223 246 147 214 195 210 168 209 217 231 181 219 199 254 193 176 235 220 217 213 206 232 207 196 204 180 171 166 149 146 165
262 255 264 301 316 306 261 245 203 189 221 237 308 206 145 212 225 207 198 200 207 215 156 200 191 226 147 251 126 184 192 227 242 141 233 228 237 146 181 171 170 200 217 212 211 219 184 177 160 166 161 179 168 64
264 255 247 266 295 224 349 205 196 209 231 225 227 191 206 210 198 215 193 190 200 176 146 187 187 185 125 211 155 203 218 219 146 223 211 215 118 153 172 175 179 189 194 184 190 161 137 131 139 167 134 37 323 301
256 264 243 240 241 222 237 55 202 184 279 240 139 115 223 224 227 232 222 212 191 157 156 183 177 182 164 168 178 211 217 175 225 199 240 177 153 156 166 172 160 157 158 161 163 151 140 129 140 133 130 140 167 332
257 266 261 242 234 238 219 218 205 170 340 108 165 219 233 232 265 210 216 185 157 191 172 192 176 237 169 168 213 165 201 221 241 219 195 119 136 155 172 170 168 162 166 163 154 138 158 157 159 138 136 140 79 327
252 277 247 219 195 190 194 187 156 102 199 263 223 230 215 230 236 211 193 173 135 94 75 86 130 191 193 187 185 199 204 207 212 200 104 126 150 164 171 176 168 159 139 145 157 159 167 167 167 153 163 156 123 87
212 227 201 180 173 150 154 199 185 213 207 230 219 227 244 322 260 223 190 152 129 157 174 185 193 185 154 184 208 201 207 227 137 123 109 131 164 165 170 168 162 151 159 158 156 158 162 157 161 179 181 179 128 121
212 214 165 160 164 165 201 229 254 258 235 236 250 224 208 260 192 183 161 129 181 189 200 127 207 233 209 204 205 169 237 128 74 70 128 151 165 167 170 162 158 161 160 159 165 162 167 172 193 189 169 180 203 202
201 187 169 163 160 169 225 223 258 271 261 287 237 255 246 231 220 245 187 175 251 309 135 237 219 231 217 181 158 178 157 181 169 165 133 166 167 169 165 160 163 165 165 169 169 181 179 193 204 171 201 178 253 96
178 161 151 156 161 199 222 208 221 254 267 244 239 251 239 223 215 210 222 206 193 212 223 224 240 249 239 13 218 133 11 95 148 158 168 170 171 172 168 169 173 167 171 172 186 207 161 190 194 186 202 268 285 203
180 188 190 181 213 240 289 249 235 246 269 266 275 256 230 215 229 221 219 209 221 229 226 233 249 256 280 76 278 99 202 241 229 203 192 172 176 182 172 182 170 176 183 179 194 180 208 194 191 189 167 215 225 246
141 145 146 186 245 217 240 226 261 306 256 245 242 227 256 244 243 244 244 227 231 232 233 248 253 258 241 222 229 209 263 180 239 237 153 155 177 184 180 183 180 185 193 187 195 185 194 203 193 179 200 200 212 245
156 175 206 178 205 237 262 221 240 231 246 257 240 213 223 208 179 198 210 223 234 231 236 238 238 242 273 284 210 186 206 214 217 219 170 177 187 183 183 186 187 189 191 188 195 187 190 182 171 202 188 193 234 184
159 234 260 225 203 245 215 222 225 239 246 237 241 227 199 182 189 217 253 247 231 222 225 223 227 228 208 224 225 209 206 218 216 200 177 186 183 181 189 184 194 192 192 179 187 188 182 185 180 203 238 208 217 223
170 227 206 261 230 234 224 241 219 227 240 212 235 256 162 176 225 233 247 251 331 210 191 191 211 225 236 233 208 226 185 212 207 170 180 195 181 170 188 186 194 187 182 175 186 184 183 184 194 202 215 218 223 248
221 218 222 220 208 232 206 282 268 280 287 285 65 46 31 283 259 230 28 282 245 37 287 188 203 222 228 194 254 227 166 210 190 174 184 189 172 176 193 183 181 182 182 181 184 187 190 194 194 207 209 195 210 267
242 245 224 226 234 255 273 312 347 35 34 9 352 299 321 254 336 300 251 54 30 35 23 209 233 217 148 202 202 183 172 197 192 178 182 187 179 200 189 187 192 180 180 185 185 191 196 195 202 204 218 221 199 204
246 253 245 271 246 262 250 226 83 45 339 290 249 214 267 302 329 272 276 16 2 358 85 98 317 265 147 186 169 161 171 180 171 151 165 196 214 193 195 192 188 166 178 187 192 187 198 200 206 210 216 218 220 229
236 246 245 248 233 242 271 148 114 204 205 221 232 189 208 209 289 353 355 342 313 284 234 178 153 197 149 155 158 184 171 168 180 175 183 190 185 204 192 162 158 171 181 184 195 199 199 205 208 216 224 225 227 224
244 229 255 265 235 231 240 178 190 200 197 212 251 273 153 95 59 12 10 11 354 323 334 333 340 259 239 182 166 165 184 192 185 188 203 197 180 190 180 181 179 186 189 189 190 203 215 212 222 232 235 248 240 227
339 249 244 251 273 259 247 250 267 205 231 12 41 340 106 116 94 46 23 350 331 322 328 323 306 328 311 169 171 179 180 162 67 64 22 211 164 160 177 192 189 193 194 204 207 206 202 209 224 220 224 229 236 247
213 236 241 245 251 229 233 243 233 229 129 73 25 345 14 59 76 31 12 354 13 13 24 341 37 56 36 76 96 83 89 101 74 57 58 44 48 87 159 188 198 199 197 207 217 229 234 219 213 228 230 228 228 233
224 232 216 261 261 245 205 229 207 87 81 55 14 19 53 63 72 51 54 42 40 42 48 54 64 104 118 125 115 104 116 122 103 94 54 245 213 232 223 203 196 196 203 214 219 228 229 229 223 222 227 230 224 218
Height
808 807 805 803 801 800 798 796 794 793 792 793 793 792 791 791 791 790 785 785 782 765 756 759 759 763 764 762 763 765 772 769 767 773 773 777 785 776 780 772 776 778 788 779 775 808 792 770 771 781 783 777 773 772
805 803 801 799 797 795 793 792 790 789 789 789 789 790 790 789 790 789 787 784 783 778 763 766 764 764 764 763 760 763 765 767 760 766 771 770 783 774 781 789 773 792 776 784 774 785 777 772 776 777 776 782 781 778
801 800 797 795 792 790 788 788 787 786 786 786 786 788 788 788 788 788 786 783 782 773 764 762 762 766 767 766 765 765 762 762 769 767 763 765 781 771 780 779 776 773 775 783 783 776 778 778 779 780 781 784 783 782
797 795 793 791 788 786 785 784 783 783 784 784 784 785 785 786 786 787 786 783 782 770 762 753 759 764 765 766 767 765 766 767 768 769 766 765 772 770 769 771 777 768 776 780 779 777 778 780 780 782 786 788 788 788
794 792 789 787 785 782 782 780 781 781 782 782 782 782 783 785 785 785 785 783 782 779 761 749 755 760 765 766 768 768 767 768 767 771 769 768 762 774 768 771 772 766 774 780 779 770 779 778 779 784 787 789 790 792
791 789 786 784 781 779 778 778 778 779 780 781 781 781 781 783 784 784 778 779 779 780 769 757 751 759 763 766 768 768 767 766 764 763 763 763 770 776 770 775 766 765 764 767 773 771 776 776 781 784 786 789 792 794
788 786 784 781 778 776 776 776 776 777 779 780 779 779 781 781 782 779 776 778 778 780 770 758 752 758 764 766 767 767 770 766 765 762 768 764 772 780 772 777 764 764 766 771 774 778 781 780 784 786 788 791 797 796
786 784 781 778 776 774 774 774 775 776 777 778 778 779 780 781 781 778 776 777 778 776 766 759 754 761 762 763 766 764 766 767 768 763 768 770 772 775 778 765 764 765 770 773 777 778 777 779 782 788 791 794 795 796
783 781 780 777 775 774 773 774 774 774 775 776 778 779 780 780 774 770 775 777 777 776 761 754 748 756 757 759 756 765 761 767 763 768 765 771 771 781 771 766 765 770 773 773 776 778 779 781 786 790 793 795 796 797
779 779 778 776 774 773 773 773 773 773 774 776 778 777 770 768 772 774 777 774 772 766 761 753 739 755 754 753 759 761 764 765 771 763 766 775 776 765 766 765 767 766 770 770 776 780 780 781 786 790 793 796 799 800
777 777 776 775 775 773 772 772 772 773 775 776 772 766 770 770 772 766 762 759 756 759 751 749 741 748 752 758 758 755 766 764 777 766 771 778 776 759 762 765 766 770 770 773 774 777 780 783 787 792 794 799 801 804
773 774 774 774 773 772 772 771 771 773 773 771 769 770 770 768 764 760 755 750 748 751 744 747 750 747 753 751 760 762 771 768 771 754 764 776 760 759 764 765 768 770 771 773 776 778 780 785 788 792 795 799 801 805
771 771 771 772 772 771 771 770 771 772 772 772 770 767 763 759 770 756 752 744 741 735 743 743 751 746 758 755 758 765 771 764 750 764 768 768 755 760 763 766 768 770 772 774 776 778 783 787 792 795 798 802 804 806
768 769 769 770 770 770 770 770 771 772 772 768 766 777 768 762 745 734 732 729 728 733 740 745 746 748 747 760 759 765 750 753 768 768 762 746 753 759 764 765 767 769 771 775 778 782 787 793 798 800 803 806 807 810
766 766 766 767 768 769 769 771 772 772 772 769 770 767 756 738 733 727 726 727 729 728 735 742 745 745 747 758 753 756 764 765 753 749 739 744 752 759 763 765 767 770 773 776 781 787 792 796 799 802 805 807 809 811
764 764 764 765 766 768 769 771 772 773 773 772 763 750 735 735 729 725 723 726 728 734 738 738 746 749 748 745 754 754 755 753 738 732 734 747 754 759 763 764 767 770 776 781 785 790 794 797 799 803 806 808 810 811
763 763 763 765 766 767 769 771 771 768 764 753 739 731 731 729 730 725 724 722 730 745 748 748 751 748 733 749 750 732 739 729 724 728 734 746 755 759 762 765 768 773 778 782 786 791 794 798 801 804 806 808 809 811
762 762 763 765 767 769 771 769 761 753 748 739 733 724 724 721 726 720 720 724 730 736 738 748 743 747 743 743 735 725 724 721 725 730 737 750 755 759 762 765 770 775 779 784 789 792 796 797 800 802 806 808 808 808
761 761 763 765 767 768 768 767 764 758 742 729 724 724 722 721 721 722 721 725 726 724 731 735 739 729 723 718 721 718 721 725 731 736 742 751 755 759 762 767 773 777 781 785 788 791 792 797 796 798 801 804 801 802
760 761 763 764 766 766 765 761 762 754 736 726 723 722 718 718 718 720 721 721 727 730 736 733 724 715 715 719 711 715 719 721 725 735 744 749 754 759 763 766 769 775 780 784 788 788 790 794 796 798 799 802 802 802
760 761 763 764 765 762 758 758 748 741 733 729 721 718 716 715 716 716 717 718 723 722 722 717 714 712 710 716 717 718 722 727 727 733 738 745 751 755 760 764 767 771 774 778 781 786 789 789 792 795 799 802 801 801
758 760 762 764 762 759 754 748 740 736 733 722 723 719 721 721 722 718 715 718 718 716 715 714 712 710 710 714 717 722 725 728 732 731 735 741 747 750 755 758 763 766 769 773 776 779 786 787 789 792 795 795 800 798
759 760 759 760 761 757 747 739 739 730 726 719 714 716 715 715 718 715 723 715 711 708 708 706 708 712 712 712 715 720 725 728 726 728 731 737 741 745 751 755 759 762 765 770 774 777 782 785 790 791 792 794 794 796
758 758 755 749 747 743 735 732 728 725 720 717 715 714 712 713 714 715 711 700 695 695 696 699 703 705 708 715 713 716 722 724 721 724 728 733 736 742 747 752 756 759 763 767 772 776 780 785 789 792 791 790 791 792
760 756 752 752 738 735 732 724 718 719 716 713 713 712 711 711 714 710 704 697 695 693 694 695 698 700 702 703 705 709 714 718 718 722 727 730 734 740 746 749 753 756 761 765 770 773 777 782 786 787 788 787 788 788
754 747 744 729 725 723 716 722 714 712 709 711 714 712 711 712 708 706 703 698 689 687 689 691 695 697 701 703 705 702 708 714 716 721 725 728 733 739 742 745 750 755 760 764 768 772 776 779 782 783 784 787 789 791
751 735 725 719 719 719 715 711 711 719 725 723 723 718 721 719 717 712 697 692 691 694 695 695 695 695 701 703 705 706 708 712 715 718 724 726 731 735 736 741 747 752 759 763 766 769 773 776 778 780 781 781 784 787
728 721 725 720 719 712 716 717 729 735 737 735 733 725 726 721 720 711 703 700 699 698 696 697 698 695 699 702 704 706 709 712 716 720 724 727 728 730 733 738 743 749 757 761 764 767 771 772 775 776 777 778 780 780
723 716 716 720 719 716 713 713 728 733 732 730 723 720 716 708 705 703 703 701 701 699 694 696 697 698 698 701 705 708 711 714 718 720 723 725 725 729 732 736 743 748 753 758 762 765 767 769 771 772 773 774 775 776
718 715 717 714 715 713 705 704 710 712 713 714 702 700 698 702 706 706 704 702 700 698 698 698 700 699 699 701 704 708 713 715 718 720 722 722 726 730 735 739 744 747 750 753 758 762 766 768 770 772 772 772 771 772
717 717 717 715 715 706 699 697 696 697 696 697 701 704 705 706 708 709 709 708 704 702 701 700 700 701 703 700 704 709 712 716 719 720 721 719 722 728 735 739 741 745 748 751 753 756 759 764 766 766 768 769 769 770
717 717 716 712 704 695 696 696 694 694 694 705 708 705 705 707 712 715 715 711 707 707 711 708 706 712 713 710 709 714 717 721 724 725 726 729 729 733 735 738 739 741 745 748 750 751 751 753 757 759 759 761 762 764
715 705 705 703 701 699 695 695 693 704 706 709 708 703 705 709 716 719 718 719 718 717 717 719 719 718 718 718 719 717 723 725 725 726 727 731 735 737 737 738 739 739 742 743 744 745 746 748 750 752 752 754 756 759